Weather in Stryapunyata

Russia / Perm Krai     58°10′47″N   55°56′53″E
temp.,
°C
wind,
m/s
gust,
m/s
humid.,
%
clouds,
%
prec.,
mm/h
press.,
hPa
HPBL,
m
28 july, wed
wed2823:00+9nw2678100 0.0 1013179
02:00+9wnw26786 0.0 1013251
05:00+9w2877100 0.0 1012290
08:00+10wnw2877100 0.1 1012649
11:00+12nw4765100 0.3 10131117
14:00+15wnw4651100 0.0 10121887
17:00+13nw3660100 0.1 10131161
20:00+12nw2663100 0.0 1012278
29 july, thu
thu2923:00+7wnw2281100 0.0 101316
02:00+6sw258585 0.0 101288
05:00+6sw3118655 0.0 1010253
08:00+11sw4147183 0.0 1008402
11:00+19wsw51048100 0.0 1006922
14:00+22w6104166 0.0 10062373
17:00+23wsw493960 0.0 10042530
20:00+16w138692 2.3 100586
30 july, fri
fri3023:00+13s239699 3.9 100461
02:00+14sw31198100 1.9 1004385
05:00+14sw3899100 2.6 1003332
08:00+14ssw3698100 0.1 1002324
11:00+15sw3697100 0.1 1001411
14:00+16sw2594100 0.3 1001395
17:00+19sw368555 1.0 1001588
20:00+18wnw38935 2.2 1002395
31 july, sat
sat3123:00+15wnw119816 2.2 100311
02:00+13wnw119926 0.0 100410
05:00+13wsw119924 0.0 100510
08:00+16ssw129655 0.0 1005201
11:00+20ssw237737 0.0 1005688
14:00+24ssw45585 0.3 10031336
17:00+22sw588165 1.5 1003802
20:00+19ssw4109483 2.0 1002650
1 august, sun
sun123:00+17sw299930 4.3 1002321
02:00+15w279928 0.0 1003198
05:00+13sw28987 0.0 1004167
08:00+16w311915 0.2 1005560
11:00+20w59585 0.2 10061154
14:00+23wnw474879 0.0 10072126
17:00+21w376595 0.0 1008500
20:00+20w386975 0.0 1008450